Weather Roundup
Issued by NWS Springfield, MO

Home | Current Version | Previous Version | Text Only | Print | Product List | Glossary On
Versions: 1 2 3 4 5 6 7 8 9 10 11 12 13 14 15 16 17 18 19 20 21 22 23 24 25 26 27 28 29 30 31 32 33 34 35 36 37 38 39 40 41 42 43 44 45 46 47 48 49 50
000
NZUS99 KSGF 280907
HRRSGF

HOURLY WEATHER
NATIONAL WEATHER SERVICE SPRINGFIELD MO
400 AM CDT WED JUN 28 2017

......SGF CWA......

CITY           SKY/WX    TMP DP  RH WIND       PRES   REMARKS
SPRINGFIELD    CLEAR     68  63  84 S12       29.97F
JOPLIN         CLEAR     71  64  78 S12       29.94S
WEST PLAINS    CLEAR     65  63  93 S5        30.05R
ROLLA          CLEAR     65  62  90 S12       29.98F
OSAGE BEACH    PTCLDY    67  63  87 S6        29.97F
BRANSON        CLEAR     63  61  94 CALM      30.02S

......SURROUNDING SGF CWA......

CITY           SKY/WX    TMP DP  RH WIND       PRES   REMARKS
CHANUTE        NOT AVBL
PARSONS        CLEAR     72  64  76 S9G18     29.90F
COFFEYVILLE    CLEAR     72  65  78 S10       29.89F HAZE
EMPORIA        PTCLDY    72  66  81 S16G25    29.85R
GROVE OK       CLEAR     70  63  78 S7        29.95F
ROGERS AR      CLEAR     68  62  81 SE9       30.00F
SILOAM SPRINGS CLEAR     70  61  73 S8        29.97F
HARRISON AR    CLEAR     66  61  84 S5        30.02R
NEAR YELLVILLE CLEAR     64  57  77 CALM      29.99R

......KANSAS AND MISSOURI......

CITY           SKY/WX    TMP DP  RH WIND       PRES   REMARKS
KANSAS CTY INT CLOUDY    74  65  73 S21G26    29.84F
DOWNTOWN KC    CLOUDY    75  65  70 S15G26    29.84F
COLUMBIA       PTCLDY    67  64  90 S10       29.95F
SEDALIA        MOCLDY    70  65  84 S14       29.93F
ST JOSEPH      CLOUDY    75  66  73 S15G22    29.81R
ST LOUIS       PTCLDY    70  57  63 S8        30.01R
SPIRIT OF STL  CLOUDY    68  60  75 S3        29.99R
KIRKSVILLE     CLOUDY    70  63  78 S15       29.89F
WICHITA        CLOUDY    74  66  76 S18       29.85R
TOPEKA         CLOUDY    76  67  73 S18G25    29.81R
OLATHE         MOCLDY    71  65  81 S13       29.86F

......TENNESSEE......

CITY           SKY/WX    TMP DP  RH WIND       PRES   REMARKS
MEMPHIS        CLEAR     73  63  70 SE9       30.04R
NASHVILLE      CLEAR     61  58  90 CALM      30.11S

......ARKANSAS.......

CITY           SKY/WX    TMP DP  RH WIND       PRES   REMARKS
FAYETTEVILLE   CLEAR     69  63  81 S3        29.99S
FT SMITH       CLEAR     69  65  86 NE7       29.97S
LITTLE ROCK    CLEAR     67  67 100 S3        30.00F

......OKLAHOMA.......

CITY           SKY/WX    TMP DP  RH WIND       PRES   REMARKS
TULSA          PTCLDY    75  67  76 S13       29.90S
PONCA CITY     CLEAR     76  66  71 S10G18    29.87R
MCALESTER      CLEAR     75  65  70 SE5       29.95F
OKLAHOMA CITY  PTCLDY    72  68  87 S15       29.90S

......IOWA............

CITY           SKY/WX    TMP DP  RH WIND       PRES   REMARKS
DES MOINES     CLOUDY    75  63  66 S18       29.78R THUNDER
QUAD CITIES    MOCLDY    64  52  64 S10       29.91F

......ILLINOIS........

CITY           SKY/WX    TMP DP  RH WIND       PRES   REMARKS
QUINCY         CLOUDY    68  60  75 S9G18     29.94F
CHICAGO        PTCLDY    60  47  61 S10       30.00S




USA.gov is the U.S. government's official web portal to all federal, state and local government web resources and services.